,,Stat5,,Stat1,,Stat2,,Stat3,,Stat4,,Wind1,,Wind1,
time,status,PA1M_AVG,status,PR1M_SUM,status,RH1M_AVG,status,SR1M_AVG,status,TA1M_AVG,status,W1dAve1m,status,W1sAve1m,
2001-01-31, 00:00:00,VALID,917.489,VALID,0,VALID,99.1496,VALID,-0.0849042,VALID,18.8381,VALID,161,VALID,0.542652,
2001-01-31, 00:01:00,VALID,917.491,VALID,0,VALID,99.147,VALID,-0.0849042,VALID,18.8247,VALID,169,VALID,0.439189,
2001-01-31, 00:02:00,VALID,917.472,VALID,0,VALID,99.1546,VALID,-0.0849042,VALID,18.8213,VALID,174,VALID,0.589154,
2001-01-31, 00:03:00,VALID,917.486,VALID,0,VALID,99.1445,VALID,-0.0509425,VALID,18.8148,VALID,174,VALID,0.561883,
2001-01-31, 00:04:00,VALID,917.477,VALID,0,VALID,99.1648,VALID,-0.0509425,VALID,18.8114,VALID,168,VALID,0.39974,
2001-01-31, 00:05:00,VALID,917.479,VALID,0,VALID,99.1661,VALID,-0.0849042,VALID,18.8312,VALID,163,VALID,0.179487,
2001-01-31, 00:06:00,VALID,917.466,VALID,0,VALID,99.1661,VALID,-0.0679233,VALID,18.8213,VALID,162,VALID,0.23522,
2001-01-31, 00:07:00,VALID,917.464,VALID,0,VALID,99.1763,VALID,0.0509425,VALID,18.8295,VALID,166,VALID,0.186883,
2001-01-31, 00:08:00,VALID,917.445,VALID,0,VALID,99.1635,VALID,0.0679233,VALID,18.833,VALID,201,VALID,0.294271,
2001-01-31, 00:09:00,VALID,917.435,VALID,0,VALID,99.1546,VALID,0.0339617,VALID,18.8263,VALID,212,VALID,0.126689,
2001-01-31, 00:10:00,VALID,917.443,VALID,0,VALID,99.1559,VALID,0.0509425,VALID,18.8199,VALID,214,VALID,0.534655,
2001-01-31, 00:11:00,VALID,917.435,VALID,0,VALID,99.1724,VALID,0.0509425,VALID,18.8266,VALID,215,VALID,0.384375,
2001-01-31, 00:12:00,VALID,917.42,VALID,0,VALID,99.1699,VALID,0,VALID,18.833,VALID,227,VALID,0.50651,
2001-01-31, 00:13:00,VALID,917.422,VALID,0,VALID,99.1457,VALID,0.0169808,VALID,18.8263,VALID,223,VALID,0.73758,
2001-01-31, 00:14:00,VALID,917.411,VALID,0,VALID,99.1216,VALID,0.0169808,VALID,18.8233,VALID,227,VALID,0.681858,
2001-01-31, 00:15:00,VALID,917.403,VALID,0,VALID,99.0911,VALID,0.0339617,VALID,18.8173,VALID,215,VALID,0.851151,
2001-01-31, 00:16:00,VALID,917.397,VALID,0,VALID,99.0758,VALID,0.0339617,VALID,18.7908,VALID,207,VALID,0.619792,
2001-01-31, 00:17:00,VALID,917.382,VALID,0,VALID,99.0783,VALID,0.0339617,VALID,18.7977,VALID,221,VALID,0.6977,
2001-01-31, 00:18:00,VALID,917.367,VALID,0,VALID,99.0783,VALID,0.0679233,VALID,18.7906,VALID,205,VALID,0.299479,
2001-01-31, 00:19:00,VALID,917.351,VALID,0,VALID,99.0847,VALID,0.0509425,VALID,18.7906,VALID,188,VALID,0.111161,
2001-01-31, 00:20:00,VALID,917.34,VALID,0.2,VALID,99.0618,VALID,0.0679233,VALID,18.7809,VALID,220,VALID,0.381757,
2001-01-31, 00:21:00,VALID,917.337,VALID,0,VALID,99.0593,VALID,0.0339617,VALID,18.7871,VALID,244,VALID,0.427679,
2001-01-31, 00:22:00,VALID,917.338,VALID,0,VALID,99.0656,VALID,0.0339617,VALID,18.801,VALID,257,VALID,0.13303,
2001-01-31, 00:23:00,VALID,917.335,VALID,0,VALID,99.0516,VALID,0.0169808,VALID,18.7975,VALID,247,VALID,0.420673,
2001-01-31, 00:24:00,VALID,917.336,VALID,0,VALID,99.0478,VALID,0.0509425,VALID,18.7806,VALID,230,VALID,0.532143,
2001-01-31, 00:25:00,VALID,917.33,VALID,0,VALID,99.044,VALID,0.0339617,VALID,18.7841,VALID,233,VALID,0.089527,
2001-01-31, 00:26:00,VALID,917.325,VALID,0,VALID,99.0326,VALID,0.0339617,VALID,18.7843,VALID,255,VALID,0,
2001-01-31, 00:27:00,VALID,917.31,VALID,0,VALID,99.0249,VALID,0.0509425,VALID,18.7813,VALID,242,VALID,0,
2001-01-31, 00:28:00,VALID,917.289,VALID,0,VALID,99.0198,VALID,0.0169808,VALID,18.7746,VALID,237,VALID,0,
2001-01-31, 00:29:00,VALID,917.292,VALID,0,VALID,99.0109,VALID,0.0509425,VALID,18.7746,VALID,238,VALID,0,
2001-01-31, 00:30:00,VALID,917.287,VALID,0,VALID,99.0262,VALID,0.0509425,VALID,18.7712,VALID,245,VALID,0,
2001-01-31, 00:31:00,VALID,917.279,VALID,0,VALID,99.0377,VALID,0,VALID,18.7811,VALID,239,VALID,0,
2001-01-31, 00:32:00,VALID,917.302,VALID,0,VALID,98.9931,VALID,0.0679233,VALID,18.7679,VALID,207,VALID,0,
2001-01-31, 00:33:00,VALID,917.286,VALID,0,VALID,98.9842,VALID,0.0679233,VALID,18.755,VALID,200,VALID,0,
2001-01-31, 00:34:00,VALID,917.277,VALID,0,VALID,98.9792,VALID,0.0509425,VALID,18.755,VALID,200,VALID,0,
2001-01-31, 00:35:00,VALID,917.284,VALID,0,VALID,98.9995,VALID,0.0679233,VALID,18.7453,VALID,200,VALID,0,
2001-01-31, 00:36:00,VALID,917.283,VALID,0,VALID,99.0033,VALID,0.0849042,VALID,18.7617,VALID,203,VALID,0,
2001-01-31, 00:37:00,VALID,917.286,VALID,0,VALID,98.9957,VALID,-0.0849042,VALID,18.7567,VALID,204,VALID,0,
2001-01-31, 00:38:00,VALID,917.274,VALID,0,VALID,98.9703,VALID,-0.0679233,VALID,18.7636,VALID,204,VALID,0,
2001-01-31, 00:39:00,VALID,917.263,VALID,0,VALID,98.9652,VALID,-0.0509425,VALID,18.744,VALID,204,VALID,0,
2001-01-31, 00:40:00,VALID,917.257,VALID,0,VALID,98.9614,VALID,-0.0339617,VALID,18.7534,VALID,204,VALID,0,
2001-01-31, 00:41:00,VALID,917.243,VALID,0,VALID,98.9792,VALID,-0.0849042,VALID,18.7599,VALID,204,VALID,0,
2001-01-31, 00:42:00,VALID,917.245,VALID,0,VALID,98.9741,VALID,-0.0509425,VALID,18.7696,VALID,204,VALID,0,
2001-01-31, 00:43:00,VALID,917.231,VALID,0,VALID,98.983,VALID,-0.0849042,VALID,18.7828,VALID,204,VALID,0,
2001-01-31, 00:44:00,VALID,917.223,VALID,0,VALID,98.9906,VALID,-0.101885,VALID,18.7991,VALID,204,VALID,0,
2001-01-31, 00:45:00,VALID,917.213,VALID,0,VALID,98.9563,VALID,-0.0679233,VALID,18.789,VALID,204,VALID,0,
2001-01-31, 00:46:00,VALID,917.193,VALID,0,VALID,98.9499,VALID,-0.0509425,VALID,18.7957,VALID,204,VALID,0,
2001-01-31, 00:47:01,VALID,917.178,VALID,0,VALID,98.9308,VALID,-0.0849042,VALID,18.783,VALID,204,VALID,0,
2001-01-31, 00:48:00,VALID,917.158,VALID,0,VALID,98.8965,VALID,-0.101885,VALID,18.7701,VALID,204,VALID,0,
2001-01-31, 00:49:00,VALID,917.139,VALID,0,VALID,98.8825,VALID,-0.101885,VALID,18.7472,VALID,204,VALID,0,
2001-01-31, 00:50:00,VALID,917.113,VALID,0,VALID,98.8736,VALID,-0.0339617,VALID,18.7572,VALID,204,VALID,0,
2001-01-31, 00:51:00,VALID,917.094,VALID,0.2,VALID,98.8482,VALID,-0.101885,VALID,18.7502,VALID,204,VALID,0,
2001-01-31, 00:52:00,VALID,917.078,VALID,0,VALID,98.8367,VALID,-0.101885,VALID,18.7472,VALID,204,VALID,0,
2001-01-31, 00:53:00,VALID,917.057,VALID,0,VALID,98.8113,VALID,-0.0679233,VALID,18.747,VALID,204,VALID,0,
2001-01-31, 00:54:00,VALID,917.045,VALID,0,VALID,98.8049,VALID,-0.0339617,VALID,18.7505,VALID,204,VALID,0,
2001-01-31, 00:55:01,VALID,917.026,VALID,0,VALID,98.7948,VALID,-0.0849042,VALID,18.7472,VALID,204,VALID,0,
2001-01-31, 00:56:00,VALID,917.01,VALID,0,VALID,98.7935,VALID,-0.0679233,VALID,18.7341,VALID,204,VALID,0,
2001-01-31, 00:57:00,VALID,917.004,VALID,0,VALID,98.7973,VALID,-0.0679233,VALID,18.7599,VALID,204,VALID,0,
2001-01-31, 00:58:00,VALID,916.988,VALID,0,VALID,98.7999,VALID,-0.0849042,VALID,18.7569,VALID,204,VALID,0,
2001-01-31, 00:59:00,VALID,916.984,VALID,0,VALID,98.8189,VALID,-0.0679233,VALID,18.7636,VALID,204,VALID,0,
2001-01-31, 01:00:00,VALID,916.974,VALID,0,VALID,98.8329,VALID,-0.0849042,VALID,18.7634,VALID,204,VALID,0,
2001-01-31, 01:01:00,VALID,916.972,VALID,0,VALID,98.8329,VALID,-0.0509425,VALID,18.7671,VALID,204,VALID,0,
2001-01-31, 01:02:01,VALID,916.964,VALID,0,VALID,98.8291,VALID,-0.0679233,VALID,18.7567,VALID,204,VALID,0,
2001-01-31, 01:03:01,VALID,916.951,VALID,0,VALID,98.8304,VALID,-0.101885,VALID,18.7636,VALID,204,VALID,0,
2001-01-31, 01:04:00,VALID,916.948,VALID,0,VALID,98.838,VALID,-0.0509425,VALID,18.7408,VALID,235,VALID,0,
2001-01-31, 01:05:00,VALID,916.926,VALID,0,VALID,98.8584,VALID,-0.0169808,VALID,18.7405,VALID,308,VALID,0,
2001-01-31, 01:06:00,VALID,916.924,VALID,0,VALID,98.8965,VALID,-0.0339617,VALID,18.7539,VALID,309,VALID,0,
2001-01-31, 01:07:01,VALID,916.91,VALID,0,VALID,98.913,VALID,0.0169808,VALID,18.7426,VALID,310,VALID,0,
2001-01-31, 01:08:00,VALID,916.897,VALID,0,VALID,98.927,VALID,0,VALID,18.7463,VALID,310,VALID,0,
2001-01-31, 01:09:01,VALID,916.896,VALID,0,VALID,98.9741,VALID,0.0339617,VALID,18.7592,VALID,310,VALID,0,
2001-01-31, 01:10:01,VALID,916.888,VALID,0,VALID,98.9868,VALID,0,VALID,18.7622,VALID,311,VALID,0,
2001-01-31, 01:11:01,VALID,916.873,VALID,0,VALID,98.9881,VALID,0.0169808,VALID,18.7721,VALID,312,VALID,0,
2001-01-31, 01:12:00,VALID,916.875,VALID,0,VALID,98.9982,VALID,0.0169808,VALID,18.7719,VALID,312,VALID,0,
2001-01-31, 01:13:01,VALID,916.858,VALID,0,VALID,98.9957,VALID,0.0339617,VALID,18.7585,VALID,312,VALID,0,
2001-01-31, 01:14:00,VALID,916.84,VALID,0,VALID,98.9868,VALID,0.0169808,VALID,18.7585,VALID,296,VALID,0,
2001-01-31, 01:15:00,VALID,916.827,VALID,0,VALID,98.983,VALID,0.0339617,VALID,18.7458,VALID,284,VALID,0,
2001-01-31, 01:16:00,VALID,916.817,VALID,0,VALID,98.9779,VALID,0.0509425,VALID,18.7426,VALID,284,VALID,0,
2001-01-31, 01:17:01,VALID,916.805,VALID,0,VALID,98.9512,VALID,0.0509425,VALID,18.7232,VALID,284,VALID,0,
2001-01-31, 01:18:00,VALID,916.786,VALID,0,VALID,98.9474,VALID,0,VALID,18.7038,VALID,278,VALID,0,
2001-01-31, 01:19:00,VALID,916.775,VALID,0,VALID,98.9804,VALID,0.0169808,VALID,18.7075,VALID,266,VALID,0,
2001-01-31, 01:20:00,VALID,916.783,VALID,0,VALID,98.9957,VALID,0.0339617,VALID,18.6944,VALID,266,VALID,0,
2001-01-31, 01:21:00,VALID,916.767,VALID,0,VALID,98.9919,VALID,0.0339617,VALID,18.681,VALID,266,VALID,0,
2001-01-31, 01:22:00,VALID,916.747,VALID,0,VALID,99.0071,VALID,0.0339617,VALID,18.6817,VALID,266,VALID,0,
2001-01-31, 01:23:00,VALID,916.729,VALID,0,VALID,99.0122,VALID,0.0339617,VALID,18.6879,VALID,266,VALID,0,
2001-01-31, 01:24:00,VALID,916.715,VALID,0,VALID,99.0402,VALID,0,VALID,18.6777,VALID,266,VALID,0,
2001-01-31, 01:25:01,VALID,916.694,VALID,0,VALID,99.044,VALID,0,VALID,18.6914,VALID,266,VALID,0,
2001-01-31, 01:26:00,VALID,916.686,VALID,0,VALID,99.0618,VALID,0.0339617,VALID,18.6941,VALID,266,VALID,0,
2001-01-31, 01:27:00,VALID,916.664,VALID,0,VALID,99.0529,VALID,0.0339617,VALID,18.6777,VALID,265,VALID,0,
2001-01-31, 01:28:00,VALID,916.655,VALID,0,VALID,99.0593,VALID,0.0849042,VALID,18.6715,VALID,232,VALID,0,
2001-01-31, 01:29:00,VALID,916.64,VALID,0,VALID,99.0656,VALID,0,VALID,18.6718,VALID,208,VALID,0,
2001-01-31, 01:30:00,VALID,916.635,VALID,0,VALID,99.0733,VALID,0.0169808,VALID,18.6688,VALID,202,VALID,0,
2001-01-31, 01:31:00,VALID,916.623,VALID,0,VALID,99.0822,VALID,0.0339617,VALID,18.6618,VALID,202,VALID,0,
2001-01-31, 01:32:01,VALID,916.621,VALID,0,VALID,99.0733,VALID,0.0679233,VALID,18.6519,VALID,202,VALID,0,
2001-01-31, 01:33:01,VALID,916.605,VALID,0,VALID,99.086,VALID,0.0339617,VALID,18.6524,VALID,202,VALID,0,
2001-01-31, 01:34:00,VALID,916.603,VALID,0,VALID,99.0911,VALID,0.0169808,VALID,18.6521,VALID,205,VALID,0,
2001-01-31, 01:35:00,VALID,916.591,VALID,0,VALID,99.0961,VALID,0.0339617,VALID,18.672,VALID,312,VALID,0,
2001-01-31, 01:36:00,VALID,916.582,VALID,0,VALID,99.1114,VALID,0.0509425,VALID,18.6519,VALID,313,VALID,0,
2001-01-31, 01:37:01,VALID,916.574,VALID,0,VALID,99.1012,VALID,0,VALID,18.6595,VALID,313,VALID,0,
2001-01-31, 01:38:00,VALID,916.564,VALID,0,VALID,99.1228,VALID,-0.0169808,VALID,18.6595,VALID,313,VALID,0,
2001-01-31, 01:39:01,VALID,916.551,VALID,0.2,VALID,99.1381,VALID,0,VALID,18.6697,VALID,313,VALID,0,
2001-01-31, 01:40:01,VALID,916.546,VALID,0,VALID,99.1445,VALID,0,VALID,18.6759,VALID,313,VALID,0,
2001-01-31, 01:41:01,VALID,916.529,VALID,0,VALID,99.1572,VALID,-0.0339617,VALID,18.6824,VALID,313,VALID,0,
2001-01-31, 01:42:00,VALID,916.527,VALID,0,VALID,99.1546,VALID,-0.0339617,VALID,18.6856,VALID,313,VALID,0,
2001-01-31, 01:43:01,VALID,916.528,VALID,0,VALID,99.1521,VALID,-0.0169808,VALID,18.6955,VALID,313,VALID,0,
2001-01-31, 01:44:00,VALID,916.522,VALID,0,VALID,99.1534,VALID,-0.0339617,VALID,18.7052,VALID,313,VALID,0,
2001-01-31, 01:45:00,VALID,916.523,VALID,0,VALID,99.1724,VALID,-0.0169808,VALID,18.7246,VALID,313,VALID,0,
2001-01-31, 01:46:00,VALID,916.515,VALID,0,VALID,99.175,VALID,-0.0679233,VALID,18.7308,VALID,313,VALID,0,
2001-01-31, 01:47:01,VALID,916.518,VALID,0,VALID,99.1737,VALID,-0.0169808,VALID,18.7345,VALID,313,VALID,0,
2001-01-31, 01:48:00,VALID,916.511,VALID,0,VALID,99.1674,VALID,-0.0169808,VALID,18.7311,VALID,309,VALID,0,
2001-01-31, 01:49:00,VALID,916.506,VALID,0,VALID,99.161,VALID,-0.0509425,VALID,18.7246,VALID,272,VALID,0,
2001-01-31, 01:50:00,VALID,916.495,VALID,0,VALID,99.175,VALID,-0.0339617,VALID,18.7311,VALID,272,VALID,0,
2001-01-31, 01:51:00,VALID,916.48,VALID,0,VALID,99.1648,VALID,-0.0679233,VALID,18.7311,VALID,272,VALID,0,
2001-01-31, 01:52:00,VALID,916.473,VALID,0,VALID,99.1775,VALID,-0.0339617,VALID,18.7179,VALID,272,VALID,0,
2001-01-31, 01:53:00,VALID,916.465,VALID,0,VALID,99.1877,VALID,-0.0169808,VALID,18.7249,VALID,272,VALID,0,
2001-01-31, 01:54:00,VALID,916.452,VALID,0,VALID,99.1991,VALID,0,VALID,18.7147,VALID,272,VALID,0,
2001-01-31, 01:55:01,VALID,916.457,VALID,0,VALID,99.1941,VALID,-0.0339617,VALID,18.7179,VALID,272,VALID,0,
2001-01-31, 01:56:00,VALID,916.441,VALID,0,VALID,99.2093,VALID,-0.0169808,VALID,18.7241,VALID,272,VALID,0,
2001-01-31, 01:57:00,VALID,916.447,VALID,0,VALID,99.2131,VALID,-0.0169808,VALID,18.7246,VALID,272,VALID,0,
2001-01-31, 01:58:00,VALID,916.44,VALID,0,VALID,99.2195,VALID,-0.0679233,VALID,18.7211,VALID,272,VALID,0,
2001-01-31, 01:59:00,VALID,916.443,VALID,0,VALID,99.2042,VALID,-0.0509425,VALID,18.708,VALID,272,VALID,0,
2001-01-31, 02:00:00,VALID,916.444,VALID,0,VALID,99.1979,VALID,-0.0169808,VALID,18.7052,VALID,272,VALID,0,
2001-01-31, 02:01:00,VALID,916.436,VALID,0,VALID,99.2119,VALID,-0.0509425,VALID,18.6923,VALID,272,VALID,0,
2001-01-31, 02:02:01,VALID,916.43,VALID,0,VALID,99.2182,VALID,-0.0339617,VALID,18.7052,VALID,252,VALID,0,
2001-01-31, 02:03:01,VALID,916.428,VALID,0,VALID,99.203,VALID,-0.0169808,VALID,18.6923,VALID,241,VALID,0,
2001-01-31, 02:04:00,VALID,916.411,VALID,0,VALID,99.2144,VALID,-0.0509425,VALID,18.6727,VALID,242,VALID,0,
2001-01-31, 02:05:01,VALID,916.407,VALID,0,VALID,99.2246,VALID,-0.0169808,VALID,18.6856,VALID,244,VALID,0,
2001-01-31, 02:06:01,VALID,916.386,VALID,0,VALID,99.2195,VALID,-0.0169808,VALID,18.6692,VALID,243,VALID,0,
2001-01-31, 02:07:01,VALID,916.392,VALID,0,VALID,99.2271,VALID,0.0339617,VALID,18.6782,VALID,234,VALID,0,
2001-01-31, 02:08:00,VALID,916.384,VALID,0.2,VALID,99.2386,VALID,0.101885,VALID,18.6678,VALID,229,VALID,0,
2001-01-31, 02:09:01,VALID,916.379,VALID,0,VALID,99.2258,VALID,0.0849042,VALID,18.6616,VALID,231,VALID,0,
2001-01-31, 02:10:01,VALID,916.381,VALID,0,VALID,99.2157,VALID,0.101885,VALID,18.6489,VALID,218,VALID,0,
2001-01-31, 02:11:01,VALID,916.365,VALID,0,VALID,99.2182,VALID,0.101885,VALID,18.6362,VALID,217,VALID,0,
2001-01-31, 02:12:00,VALID,916.349,VALID,0,VALID,99.2169,VALID,0.0509425,VALID,18.6166,VALID,218,VALID,0,
2001-01-31, 02:13:01,VALID,916.337,VALID,0,VALID,99.2144,VALID,0.0509425,VALID,18.6171,VALID,234,VALID,0,
2001-01-31, 02:14:00,VALID,916.329,VALID,0,VALID,99.2411,VALID,0.0679233,VALID,18.6104,VALID,226,VALID,0,
2001-01-31, 02:15:01,VALID,916.319,VALID,0,VALID,99.2475,VALID,0.0849042,VALID,18.5938,VALID,248,VALID,0,
2001-01-31, 02:16:01,VALID,916.305,VALID,0,VALID,99.2564,VALID,0.0849042,VALID,18.594,VALID,245,VALID,0,
2001-01-31, 02:17:01,VALID,916.301,VALID,0,VALID,99.25,VALID,0.0849042,VALID,18.6069,VALID,244,VALID,0,
2001-01-31, 02:18:00,VALID,916.286,VALID,0,VALID,99.2704,VALID,0.0509425,VALID,18.6005,VALID,243,VALID,0,
2001-01-31, 02:19:01,VALID,916.281,VALID,0,VALID,99.2742,VALID,0.0679233,VALID,18.5903,VALID,243,VALID,0,
2001-01-31, 02:20:00,VALID,916.273,VALID,0,VALID,99.2704,VALID,0.0849042,VALID,18.5809,VALID,236,VALID,0,
2001-01-31, 02:21:01,VALID,916.278,VALID,0,VALID,99.2704,VALID,0.0679233,VALID,18.5908,VALID,227,VALID,0,
2001-01-31, 02:22:00,VALID,916.268,VALID,0,VALID,99.292,VALID,-0.0509425,VALID,18.589,VALID,218,VALID,0,
2001-01-31, 02:23:01,VALID,916.269,VALID,0,VALID,99.3174,VALID,-0.0509425,VALID,18.6118,VALID,211,VALID,0,
2001-01-31, 02:24:01,VALID,916.262,VALID,0,VALID,99.3098,VALID,-0.0339617,VALID,18.6081,VALID,194,VALID,0,
2001-01-31, 02:25:01,VALID,916.278,VALID,0,VALID,99.3098,VALID,-0.0679233,VALID,18.5989,VALID,193,VALID,0,
2001-01-31, 02:26:01,VALID,916.264,VALID,0,VALID,99.311,VALID,-0.0849042,VALID,18.5986,VALID,192,VALID,0,
2001-01-31, 02:27:01,VALID,916.269,VALID,0,VALID,99.3301,VALID,-0.0339617,VALID,18.6016,VALID,189,VALID,0,
2001-01-31, 02:28:01,VALID,916.282,VALID,0,VALID,99.339,VALID,-0.0679233,VALID,18.612,VALID,189,VALID,0,
2001-01-31, 02:29:01,VALID,916.28,VALID,0,VALID,99.3365,VALID,-0.0169808,VALID,18.615,VALID,188,VALID,0,
2001-01-31, 02:30:01,VALID,916.283,VALID,0,VALID,99.3441,VALID,0,VALID,18.6116,VALID,185,VALID,0,
2001-01-31, 02:31:01,VALID,916.281,VALID,0,VALID,99.3466,VALID,-0.0339617,VALID,18.6111,VALID,174,VALID,0,
2001-01-31, 02:32:01,VALID,916.282,VALID,0,VALID,99.3479,VALID,-0.0509425,VALID,18.618,VALID,153,VALID,0,
2001-01-31, 02:33:01,VALID,916.277,VALID,0,VALID,99.3403,VALID,-0.0679233,VALID,18.6021,VALID,137,VALID,0,
2001-01-31, 02:34:01,VALID,916.276,VALID,0,VALID,99.3454,VALID,-0.0339617,VALID,18.6016,VALID,124,VALID,0,
2001-01-31, 02:35:01,VALID,916.284,VALID,0,VALID,99.3377,VALID,-0.0509425,VALID,18.5887,VALID,149,VALID,0,
2001-01-31, 02:36:01,VALID,916.284,VALID,0,VALID,99.3238,VALID,-0.0339617,VALID,18.5661,VALID,150,VALID,0.48683,
2001-01-31, 02:37:01,VALID,916.284,VALID,0,VALID,99.3327,VALID,-0.0339617,VALID,18.5562,VALID,138,VALID,0.562934,
2001-01-31, 02:38:01,VALID,916.292,VALID,0,VALID,99.3441,VALID,-0.0509425,VALID,18.5534,VALID,139,VALID,0.0785256,
2001-01-31, 02:39:01,VALID,916.287,VALID,0,VALID,99.3479,VALID,-0.0339617,VALID,18.5604,VALID,133,VALID,0,
2001-01-31, 02:40:01,VALID,916.275,VALID,0,VALID,99.3479,VALID,-0.0169808,VALID,18.5502,VALID,137,VALID,0,
2001-01-31, 02:41:00,VALID,916.285,VALID,0,VALID,99.353,VALID,0,VALID,18.5537,VALID,128,VALID,0,
2001-01-31, 02:42:00,VALID,916.29,VALID,0,VALID,99.3873,VALID,-0.0339617,VALID,18.5502,VALID,117,VALID,0,
2001-01-31, 02:43:00,VALID,916.275,VALID,0,VALID,99.3848,VALID,-0.0849042,VALID,18.5666,VALID,127,VALID,0.0175781,
2001-01-31, 02:44:00,VALID,916.268,VALID,0,VALID,99.3772,VALID,0,VALID,18.5534,VALID,136,VALID,0.467448,
2001-01-31, 02:45:00,VALID,916.259,VALID,0,VALID,99.3912,VALID,-0.0339617,VALID,18.5437,VALID,126,VALID,0.377262,
2001-01-31, 02:46:00,VALID,916.253,VALID,0,VALID,99.3835,VALID,-0.0339617,VALID,18.5338,VALID,145,VALID,0.46224,
2001-01-31, 02:47:00,VALID,916.252,VALID,0,VALID,99.3772,VALID,-0.0339617,VALID,18.5179,VALID,131,VALID,0.546658,
2001-01-31, 02:48:00,VALID,916.246,VALID,0,VALID,99.3797,VALID,-0.0509425,VALID,18.5147,VALID,144,VALID,0.457732,
2001-01-31, 02:49:00,VALID,916.247,VALID,0,VALID,99.3886,VALID,-0.0339617,VALID,18.5147,VALID,138,VALID,0.468973,
2001-01-31, 02:50:00,VALID,916.245,VALID,0,VALID,99.3861,VALID,-0.0339617,VALID,18.5248,VALID,137,VALID,0.433699,
2001-01-31, 02:51:00,VALID,916.227,VALID,0,VALID,99.4153,VALID,-0.0679233,VALID,18.5246,VALID,119,VALID,0.532589,
2001-01-31, 02:52:00,VALID,916.216,VALID,0.2,VALID,99.4217,VALID,0.0509425,VALID,18.5366,VALID,110,VALID,0.454644,
2001-01-31, 02:53:00,VALID,916.195,VALID,0,VALID,99.4179,VALID,0.0339617,VALID,18.5391,VALID,111,VALID,0.429287,
2001-01-31, 02:54:00,VALID,916.197,VALID,0,VALID,99.4255,VALID,0.0679233,VALID,18.5421,VALID,96,VALID,0.399777,
2001-01-31, 02:55:00,VALID,916.183,VALID,0,VALID,99.4306,VALID,0.0509425,VALID,18.5486,VALID,106,VALID,0.598818,
2001-01-31, 02:56:00,VALID,916.187,VALID,0,VALID,99.4268,VALID,0.0509425,VALID,18.5393,VALID,117,VALID,0.439063,
2001-01-31, 02:57:00,VALID,916.167,VALID,0,VALID,99.428,VALID,0.0339617,VALID,18.5423,VALID,103,VALID,0.484809,
2001-01-31, 02:58:00,VALID,916.164,VALID,0,VALID,99.4306,VALID,0.0509425,VALID,18.5386,VALID,115,VALID,0.472005,
2001-01-31, 02:59:00,VALID,916.154,VALID,0,VALID,99.4318,VALID,0.0849042,VALID,18.5327,VALID,109,VALID,0.406033,
2001-01-31, 03:00:00,VALID,916.146,VALID,0,VALID,99.4331,VALID,0.0339617,VALID,18.5322,VALID,111,VALID,0.32134,
2001-01-31, 03:01:00,VALID,916.13,VALID,0,VALID,99.4344,VALID,0.0849042,VALID,18.5359,VALID,107,VALID,0.0442708,
2001-01-31, 03:02:00,VALID,916.124,VALID,0,VALID,99.4369,VALID,0.0509425,VALID,18.5324,VALID,102,VALID,0,
2001-01-31, 03:03:00,VALID,916.117,VALID,0,VALID,99.4369,VALID,0.0339617,VALID,18.5391,VALID,106,VALID,0,
2001-01-31, 03:04:00,VALID,916.116,VALID,0,VALID,99.4395,VALID,0.0509425,VALID,18.5324,VALID,106,VALID,0,
2001-01-31, 03:05:00,VALID,916.112,VALID,0,VALID,99.4433,VALID,0.0679233,VALID,18.5393,VALID,106,VALID,0,
2001-01-31, 03:06:00,VALID,916.117,VALID,0,VALID,99.4357,VALID,0.0679233,VALID,18.5423,VALID,106,VALID,0,
2001-01-31, 03:07:00,VALID,916.113,VALID,0,VALID,99.4408,VALID,-0.0339617,VALID,18.5405,VALID,106,VALID,0,
2001-01-31, 03:08:00,VALID,916.107,VALID,0,VALID,99.4344,VALID,-0.0849042,VALID,18.5244,VALID,106,VALID,0,
2001-01-31, 03:09:00,VALID,916.107,VALID,0,VALID,99.4357,VALID,-0.0509425,VALID,18.5341,VALID,106,VALID,0,
2001-01-31, 03:10:00,VALID,916.096,VALID,0,VALID,99.4318,VALID,-0.0679233,VALID,18.5412,VALID,106,VALID,0,
2001-01-31, 03:11:00,VALID,916.09,VALID,0,VALID,99.4331,VALID,-0.0509425,VALID,18.5373,VALID,106,VALID,0,
2001-01-31, 03:12:00,VALID,916.09,VALID,0,VALID,99.4382,VALID,-0.0849042,VALID,18.5437,VALID,107,VALID,0,
2001-01-31, 03:13:00,VALID,916.087,VALID,0,VALID,99.442,VALID,-0.0339617,VALID,18.5472,VALID,108,VALID,0,
2001-01-31, 03:14:00,VALID,916.08,VALID,0,VALID,99.4484,VALID,-0.0339617,VALID,18.537,VALID,108,VALID,0,
2001-01-31, 03:15:00,VALID,916.078,VALID,0,VALID,99.4547,VALID,0,VALID,18.5433,VALID,108,VALID,0,
2001-01-31, 03:16:00,VALID,916.061,VALID,0,VALID,99.4484,VALID,-0.0679233,VALID,18.5474,VALID,114,VALID,0,
2001-01-31, 03:17:00,VALID,916.066,VALID,0.2,VALID,99.4433,VALID,-0.0509425,VALID,18.5341,VALID,119,VALID,0,
2001-01-31, 03:18:00,VALID,916.062,VALID,0,VALID,99.4433,VALID,0,VALID,18.5214,VALID,120,VALID,0,
2001-01-31, 03:19:00,VALID,916.046,VALID,0,VALID,99.4357,VALID,-0.0509425,VALID,18.5082,VALID,120,VALID,0,
2001-01-31, 03:20:00,VALID,916.043,VALID,0,VALID,99.4382,VALID,-0.0849042,VALID,18.5052,VALID,120,VALID,0,
2001-01-31, 03:21:00,VALID,916.042,VALID,0,VALID,99.4318,VALID,-0.0509425,VALID,18.4764,VALID,120,VALID,0.12567,
2001-01-31, 03:22:00,VALID,916.036,VALID,0,VALID,99.4395,VALID,0,VALID,18.4821,VALID,120,VALID,0.380425,
2001-01-31, 03:23:00,VALID,916.04,VALID,0,VALID,99.4471,VALID,0.101885,VALID,18.4748,VALID,124,VALID,0.413662,
2001-01-31, 03:24:00,VALID,916.027,VALID,0,VALID,99.4585,VALID,0.0339617,VALID,18.4678,VALID,128,VALID,0.332143,
2001-01-31, 03:25:00,VALID,916.026,VALID,0,VALID,99.4547,VALID,0.0339617,VALID,18.4849,VALID,128,VALID,0.265625,
2001-01-31, 03:26:00,VALID,916.018,VALID,0,VALID,99.4509,VALID,0.0339617,VALID,18.4718,VALID,135,VALID,0.333929,
2001-01-31, 03:27:00,VALID,915.996,VALID,0,VALID,99.442,VALID,0.0509425,VALID,18.4487,VALID,142,VALID,0.39974,
2001-01-31, 03:28:00,VALID,915.992,VALID,0,VALID,99.4471,VALID,0.0339617,VALID,18.4494,VALID,145,VALID,0.405382,
2001-01-31, 03:29:00,VALID,915.975,VALID,0,VALID,99.4522,VALID,0.0169808,VALID,18.4459,VALID,152,VALID,0.375651,
2001-01-31, 03:30:00,VALID,915.98,VALID,0.2,VALID,99.4611,VALID,0.0849042,VALID,18.4196,VALID,148,VALID,0.430099,
2001-01-31, 03:31:00,VALID,915.973,VALID,0,VALID,99.4611,VALID,0.0169808,VALID,18.4332,VALID,148,VALID,0.209635,
2001-01-31, 03:32:00,VALID,915.958,VALID,0,VALID,99.4891,VALID,0.0509425,VALID,18.439,VALID,145,VALID,0,
2001-01-31, 03:33:00,VALID,915.957,VALID,0,VALID,99.4713,VALID,0.0339617,VALID,18.4427,VALID,145,VALID,0,
2001-01-31, 03:34:00,VALID,915.961,VALID,0,VALID,99.4751,VALID,0.0339617,VALID,18.436,VALID,146,VALID,0,
2001-01-31, 03:35:00,VALID,915.97,VALID,0,VALID,99.4662,VALID,0.0509425,VALID,18.439,VALID,146,VALID,0,
2001-01-31, 03:36:00,VALID,915.958,VALID,0,VALID,99.4713,VALID,0.0509425,VALID,18.4265,VALID,158,VALID,0,
2001-01-31, 03:37:00,VALID,915.965,VALID,0,VALID,99.4764,VALID,-0.0169808,VALID,18.4175,VALID,162,VALID,0,
2001-01-31, 03:38:00,VALID,915.965,VALID,0,VALID,99.484,VALID,-0.0509425,VALID,18.4178,VALID,142,VALID,0,